EW3804 Weather Reports


Display with metric or nautical units.
time (UTC)temp
F
wind
direction
speed
MPH
gust
MPH
rain 1hr
in
rain 24hr
in
rain mn
in
humidity
%
barometer
mb
20260902064552 81 149 0.0 0.0 0.00 0.00 0.00 72 1007.3
20260902063052 81 156 0.0 2.0 0.00 0.00 0.00 72 1007.5
20260902060042 82 144 0.0 4.0 0.00 0.00 0.00 70 1007.4
20260902054547 82 117 0.0 2.0 0.00 0.00 0.00 69 1007.1
20260902053044 82 134 2.0 4.0 0.00 0.00 0.00 69 1007.1
20260902051538 83 131 1.0 4.0 0.00 0.00 0.00 67 1007.1
20260902050034 83 167 2.0 6.0 0.00 0.00 0.00 67 1007.0
20260902044533 84 146 3.0 9.0 0.00 0.00 0.00 66 1007.0
20260902043032 84 135 3.0 7.0 0.00 0.00 0.00 65 1007.1
20260902041534 85 129 3.0 9.0 0.00 0.00 0.00 64 1007.0
20260902040033 86 115 5.0 11.0 0.00 0.00 0.00 62 1006.9
20260902034530 86 114 6.0 12.0 0.00 0.00 0.00 62 1006.8
20260902033029 87 127 7.0 13.0 0.00 0.00 0.00 61 1006.6
20260902031529 88 104 7.0 12.0 0.00 0.00 0.00 57 1006.5
20260902030028 89 105 6.0 13.0 0.00 0.00 0.00 55 1006.1
20260902024527 89 107 0.0 4.0 0.00 0.00 0.00 53 1005.9
20260902023037 89 106 1.0 4.0 0.00 0.00 0.00 53 1005.4
20260902021526 90 106 0.0 1.0 0.00 0.00 0.00 51 1005.2
20260902020026 90 106 0.0 3.0 0.00 0.00 0.00 50 1005.0
20260902014536 91 106 0.0 3.0 0.00 0.00 0.00 49 1004.8
20260902013024 92 106 0.0 3.0 0.00 0.00 0.00 47 1004.7
20260902011539 92 106 0.0 4.0 0.00 0.00 0.00 46 1004.7
20260902010023 93 106 2.0 4.0 0.00 0.00 0.00 45 1004.6
20260902004523 94 106 2.0 6.0 0.00 0.00 0.00 44 1004.5
20260902003021 95 103 3.0 7.0 0.00 0.00 0.00 43 1004.6
20260902001523 95 63 5.0 9.0 0.00 0.00 0.00 43 1004.7
20260902000019 96 90 5.0 8.0 0.00 0.00 0.00 43 1004.7
20260901234519 96 148 5.0 10.0 0.00 0.00 0.00 42 1004.7
20260901233019 96 50 5.0 10.0 0.00 0.00 0.00 41 1004.8
20260901231518 96 53 6.0 13.0 0.00 0.00 0.00 42 1004.9
20260901230017 96 119 4.0 9.0 0.00 0.00 0.00 41 1004.9
20260901224517 97 61 7.0 12.0 0.00 0.00 0.00 41 1004.8
20260901223016 97 58 5.0 9.0 0.00 0.00 0.00 41 1004.8
20260901221514 97 63 6.0 11.0 0.00 0.00 0.00 40 1004.9
20260901220013 98 124 3.0 9.0 0.00 0.00 0.00 40 1004.9
20260901214532 98 98 6.0 13.0 0.00 0.00 0.00 40 1005.0
20260901213010 98 120 5.0 10.0 0.00 0.00 0.00 39 1004.9
20260901211509 97 32 5.0 12.0 0.00 0.00 0.00 41 1005.3
20260901210010 96 126 3.0 11.0 0.00 0.00 0.00 42 1005.5
20260901204506 98 110 3.0 11.0 0.00 0.00 0.00 40 1005.6
20260901203004 98 267 2.0 4.0 0.00 0.00 0.00 40 1005.8
20260901201501 97 111 5.0 13.0 0.00 0.00 0.00 42 1006.1
20260901200111 97 118 4.0 10.0 0.00 0.00 0.00 43 1006.3
20260901194559 96 108 3.0 10.0 0.00 0.00 0.00 43 1006.4
20260901193056 97 124 5.0 11.0 0.00 0.00 0.00 42 1006.6
20260901191556 97 94 3.0 12.0 0.00 0.00 0.00 41 1006.7
20260901190054 97 60 0.0 9.0 0.00 0.00 0.00 46 1007.0
20260901184554 95 126 2.0 10.0 0.00 0.00 0.00 46 1007.2
20260901183102 94 112 2.0 6.0 0.00 0.00 0.00 47 1007.4
20260901181543 95 143 3.0 9.0 0.00 0.00 0.00 48 1007.7
20260901180040 94 93 3.0 10.0 0.00 0.00 0.00 47 1008.0
20260901174538 94 108 6.0 10.0 0.00 0.00 0.00 49 1008.3
20260901173039 93 82 2.0 11.0 0.00 0.00 0.00 50 1008.4
20260901171534 92 63 0.0 8.0 0.00 0.00 0.00 51 1008.5
20260901170034 93 94 1.0 7.0 0.00 0.00 0.00 50 1008.7
20260901164534 93 96 4.0 10.0 0.00 0.00 0.00 50 1008.7
20260901163030 93 68 3.0 6.0 0.00 0.00 0.00 51 1008.8
20260901161528 92 200 5.0 8.0 0.00 0.00 0.00 52 1009.0
20260901160034 91 160 1.0 7.0 0.00 0.00 0.00 54 1009.1
20260901154527 90 152 3.0 8.0 0.00 0.00 0.00 55 1009.1
20260901153036 91 122 3.0 7.0 0.00 0.00 0.00 56 1009.2
20260901151522 89 136 2.0 6.0 0.00 0.00 0.00 57 1009.1
20260901150020 88 142 0.0 5.0 0.00 0.00 0.00 59 1009.2
20260901144517 88 137 1.0 3.0 0.00 0.00 0.00 61 1009.3
20260901143012 87 115 0.0 6.0 0.00 0.00 0.00 64 1009.2
20260901141507 86 259 1.0 3.0 0.00 0.00 0.00 68 1009.2
20260901140003 84 159 0.0 3.0 0.00 0.00 0.00 73 1009.2
20260901134501 82 160 0.0 2.0 0.00 0.00 0.00 77 1009.2
20260901133100 80 107 2.0 4.0 0.00 0.00 0.00 79 1009.2
20260901131559 79 136 1.0 3.0 0.00 0.00 0.00 81 1009.2
20260901130056 78 119 0.0 3.0 0.00 0.00 0.00 83 1009.0
20260901124553 0 0.0 0.0 0.00 0.00 0.00 1008.8
20260901123052 0 0.0 0.0 0.00 0.00 0.00 1008.6
20260901121544 0 0.0 0.0 0.00 0.00 0.00 1008.5
20260901120039 0 0.0 0.0 0.00 0.00 0.00 1008.5
20260901114535 0 0.0 0.0 0.00 0.00 0.00 1008.5
20260901113030 0 0.0 0.0 0.00 0.00 0.00 1008.4
20260901111526 0 0.0 0.0 0.00 0.00 0.00 1008.3
20260901110024 0 0.0 0.0 0.00 0.00 0.00 1008.3
20260901104517 0 0.0 0.0 0.00 0.00 0.00 1008.2
20260901103012 0 0.0 0.0 0.00 0.00 0.00 1008.1
20260901101508 0 0.0 0.0 0.00 0.00 0.00 1008.0
20260901100005 0 0.0 0.0 0.00 0.00 0.00 1007.9
20260901094604 78 145 0.0 2.0 0.00 0.00 0.00 78 1008.0
20260901093056 80 132 1.0 2.0 0.00 0.00 0.00 79 1008.1
20260901091604 80 146 0.0 0.0 0.00 0.00 0.00 78 1008.0
20260901090100 81 146 0.0 3.0 0.00 0.00 0.00 77 1007.9
20260901084553 81 156 1.0 3.0 0.00 0.00 0.00 76 1007.8
20260901083051 82 160 1.0 4.0 0.00 0.00 0.00 75 1007.8
20260901081546 82 193 2.0 4.0 0.00 0.00 0.00 75 1007.8
20260901080057 82 148 2.0 7.0 0.00 0.00 0.00 74 1007.8
20260901074547 82 165 2.0 6.0 0.00 0.00 0.00 73 1007.7
20260901073042 82 135 3.0 8.0 0.00 0.00 0.00 73 1007.7
20260901071540 82 146 2.0 6.0 0.00 0.00 0.00 71 1007.7
20260901070046 82 152 3.0 8.0 0.00 0.00 0.00 69 1007.7